Regional Weather Roundup
Issued by NWS

Home | Current Version | Previous Version | Text Only | Print | Product List | Glossary On
Versions: 1 2 3 4 5 6 7 8 9 10 11 12 13 14 15 16 17 18 19 20 21 22 23 24 25 26 27 28
000
ASUS46 KPQR 241610
RWROR

OREGON REGIONAL WEATHER ROUNDUP
NATIONAL WEATHER SERVICE PORTLAND OR
900 AM PDT FRI OCT 24 2014

NOTE: "FAIR" INDICATES FEW OR NO CLOUDS BELOW 12,000 FEET WITH
NO SIGNIFICANT WEATHER AND/OR OBSTRUCTIONS TO VISIBILITY.

ORZ001>013-241700-
NORTHWEST OREGON


CITY           SKY/WX    TMP DP  RH WIND       PRES   REMARKS
ASTORIA        CLOUDY    50  48  93 E5        29.98S
NEWPORT        CLOUDY    54  50  87 E13       29.95F
PORTLAND       CLOUDY    52  50  93 CALM      30.00F
VANCOUVER WA   CLOUDY    51  49  92 CALM      30.00F
SCAPPOOSE      CLOUDY    50  49  96 CALM      30.01S FOG
HILLSBORO      CLOUDY    48  48 100 NW6       30.00S
AURORA         CLOUDY   N/A N/A N/A N6        29.99F
MCMINNVILLE    CLOUDY    50  49  96 N8        29.99F
SALEM          CLOUDY    51  49  92 N3        29.97S FOG
CORVALLIS      CLOUDY    52  48  87 N3        29.97F
EUGENE         CLOUDY    50  48  93 N5        29.95F
$$

ORZ021-028-241700-
SOUTHWEST OREGON


CITY           SKY/WX    TMP DP  RH WIND       PRES   REMARKS
NORTH BEND     CLOUDY    55  55 100 CALM      29.90F
BROOKINGS      RAIN      55  54  97 E9        29.86S VSB 1
ROSEBURG       LGT RAIN  54  51  90 N3        29.92F FOG
SEXTON SUMMIT  LGT RAIN  43  43 100 E9        29.91F VSB<1/4
MEDFORD        CLOUDY    52  51  97 CALM      29.94F
$$

ORZ009-041-241700-
COLUMBIA GORGE


CITY           SKY/WX    TMP DP  RH WIND       PRES   REMARKS
TROUTDALE      CLOUDY    53  49  86 E14       29.98F
THE DALLES     CLOUDY    48  45  89 CALM      30.08R
$$

ORZ029>031-042>050-061>064-241700-
EASTERN OREGON


CITY           SKY/WX    TMP DP  RH WIND       PRES   REMARKS
REDMOND        LGT RAIN  46  43  89 CALM      30.04S
BEND           CLOUDY    45  43  93 CALM      30.05S
KLAMATH FALLS  CLOUDY    45  42  89 CALM      30.02R
LAKEVIEW       CLOUDY    46  43  87 N5        30.08R
HERMISTON      CLOUDY    48  46  93 CALM      30.07S
PENDLETON      CLOUDY    48  46  93 SE7       30.06S
JOHN DAY       LGT RAIN  46  44  91 E5        30.10S
MEACHAM        CLOUDY    44  43  96 CALM      30.09R
LA GRANDE      CLOUDY    46  37  71 NW5       30.10R
BAKER CITY     LGT RAIN  46  45  96 CALM      30.12R
BURNS          LGT RAIN  45  43  93 NW5       30.10S
ROME             N/A     49  44  83 N5        30.08R
ONTARIO        LGT RAIN  52  51  97 CALM      30.14R
$$



USA.gov is the U.S. government's official web portal to all federal, state and local government web resources and services.